AE7VB Weather Reports


time (UTC)temp
F
wind
direction
speed
knots
gust
knots
rain 1hr
in
rain 24hr
in
rain mn
in
humidity
%
barometer
mb
20260831124520 46 223 0.0 0.0 0.00 0.00 0.00 65 1022.7
20260831123014 45 222 0.0 0.0 0.00 0.00 0.00 65 1022.8
20260831121503 46 223 0.0 0.0 0.00 0.00 0.00 65 1022.8
20260831120045 46 223 0.0 0.0 0.00 0.00 0.00 64 1022.9
20260831114521 46 222 0.0 0.0 0.00 0.00 0.00 63 1022.9
20260831113012 46 223 0.0 0.0 0.00 0.00 0.00 63 1022.9
20260831111509 46 232 0.0 0.0 0.00 0.00 0.00 63 1022.9
20260831110047 46 232 0.0 0.0 0.00 0.00 0.00 63 1023.0
20260831104533 46 232 0.0 0.0 0.00 0.00 0.00 62 1023.0
20260831103022 46 232 0.0 0.0 0.00 0.00 0.00 62 1023.0
20260831101512 47 232 0.0 0.0 0.00 0.00 0.00 61 1023.1
20260831100059 47 238 0.0 0.0 0.00 0.00 0.00 61 1023.1
20260831094559 47 238 0.0 0.0 0.00 0.00 0.00 60 1023.1
20260831093048 47 237 0.0 0.0 0.00 0.00 0.00 60 1023.2
20260831091525 47 238 0.0 0.0 0.00 0.00 0.00 60 1023.2
20260831090003 48 238 0.0 0.0 0.00 0.00 0.00 59 1023.4
20260831084650 48 238 0.0 0.0 0.00 0.00 0.00 58 1023.4
20260831084503 48 238 0.0 0.0 0.00 0.00 0.00 58 1023.4
20260831083050 48 237 0.0 0.0 0.00 0.00 0.00 59 1023.4
20260831081525 48 238 0.0 0.0 0.00 0.00 0.00 59 1023.3
20260831080027 48 237 0.0 0.0 0.00 0.00 0.00 57 1023.3
20260831074557 49 237 0.0 0.0 0.00 0.00 0.00 56 1023.4
20260831073042 50 238 0.0 0.0 0.00 0.00 0.00 55 1023.3
20260831071517 51 250 0.0 0.0 0.00 0.00 0.00 54 1023.2
20260831070029 51 248 0.0 0.0 0.00 0.00 0.00 52 1023.3
20260831064510 52 154 0.0 0.0 0.00 0.00 0.00 51 1023.2
20260831063110 52 155 0.0 0.0 0.00 0.00 0.00 51 1023.3
20260831061552 52 155 0.0 0.0 0.00 0.00 0.00 51 1023.4
20260831060049 52 149 0.0 0.0 0.00 0.00 0.00 50 1023.6
20260831054536 53 153 0.0 0.0 0.00 0.00 0.00 50 1023.7
20260831053026 53 153 0.0 0.0 0.00 0.00 0.00 49 1023.7
20260831051524 53 146 0.0 0.0 0.00 0.00 0.00 49 1023.6
20260831050009 54 153 0.0 0.0 0.00 0.00 0.00 49 1023.7
20260831044512 54 151 0.0 0.0 0.00 0.00 0.00 48 1023.7
20260831043051 55 163 0.0 0.0 0.00 0.00 0.00 49 1023.6
20260831041537 55 161 0.0 0.0 0.00 0.00 0.00 49 1023.7
20260831040036 55 162 0.0 2.6 0.00 0.00 0.00 48 1023.6
20260831034526 56 106 0.0 0.0 0.00 0.00 0.00 47 1023.6
20260831033012 57 105 0.0 0.0 0.00 0.00 0.00 46 1023.4
20260831031559 58 137 0.0 0.0 0.00 0.00 0.00 44 1023.3
20260831030054 60 137 0.0 0.0 0.00 0.00 0.00 42 1023.0
20260831024549 62 57 0.0 0.0 0.00 0.00 0.00 38 1022.8
20260831023025 64 23 0.0 1.7 0.00 0.00 0.00 36 1022.8
20260831021512 65 26 0.0 3.5 0.00 0.00 0.00 35 1022.7
20260831020002 66 20 0.0 2.6 0.00 0.00 0.00 35 1022.6
20260831014615 66 5 0.0 4.3 0.00 0.00 0.00 33 1022.7
20260831013054 67 32 0.0 4.3 0.00 0.00 0.00 33 1022.7
20260831011529 68 5 0.0 4.3 0.00 0.00 0.00 32 1022.7
20260831010017 68 43 0.9 4.3 0.00 0.00 0.00 32 1022.6
20260831004502 68 70 0.9 3.5 0.00 0.00 0.00 32 1022.7
20260831003043 68 58 0.9 5.2 0.00 0.00 0.00 32 1022.8
20260831001541 68 32 0.9 7.0 0.00 0.00 0.00 32 1022.8
20260831000025 68 5 0.9 2.6 0.00 0.00 0.00 32 1022.8
20260830234517 69 22 0.9 5.2 0.00 0.00 0.00 30 1022.8
20260830233011 70 29 0.9 2.6 0.00 0.00 0.00 28 1022.8
20260830231559 70 10 0.0 6.1 0.00 0.00 0.00 24 1023.0
20260830230042 71 331 0.9 9.6 0.00 0.00 0.00 24 1023.0
20260830224523 70 300 0.9 10.4 0.00 0.00 0.00 22 1023.1
20260830223013 70 271 0.9 7.0 0.00 0.00 0.00 23 1023.3
20260830221509 70 239 1.7 13.9 0.00 0.00 0.00 23 1023.3
20260830220047 70 286 1.7 7.0 0.00 0.00 0.00 23 1023.4
20260830214535 69 217 0.9 10.4 0.00 0.00 0.00 25 1023.6
20260830213021 69 271 2.6 11.3 0.00 0.00 0.00 24 1023.8
20260830211513 69 286 1.7 7.8 0.00 0.00 0.00 24 1023.9
20260830210005 70 266 0.9 8.7 0.00 0.00 0.00 24 1023.9
20260830204558 69 292 1.7 9.6 0.00 0.00 0.00 28 1024.0
20260830203049 69 327 0.9 13.0 0.00 0.00 0.00 30 1024.0
20260830201539 70 321 0.0 7.0 0.00 0.00 0.00 27 1024.0
20260830200021 69 271 1.7 9.6 0.00 0.00 0.00 30 1024.0
20260830194515 69 313 0.0 9.6 0.00 0.00 0.00 29 1024.1
20260830193059 69 212 0.0 7.8 0.00 0.00 0.00 26 1024.2
20260830191543 69 290 1.7 7.0 0.00 0.00 0.00 28 1024.3
20260830190029 68 302 0.9 9.6 0.00 0.00 0.00 27 1024.3
20260830184511 67 268 0.9 10.4 0.00 0.00 0.00 32 1024.3
20260830183056 67 268 2.6 10.4 0.00 0.00 0.00 32 1024.4
20260830181547 66 275 0.9 9.6 0.00 0.00 0.00 31 1024.6
20260830180035 65 265 0.0 4.3 0.00 0.00 0.00 34 1024.7
20260830174529 64 263 0.0 1.7 0.00 0.00 0.00 37 1024.6
20260830173006 63 28 0.0 7.8 0.00 0.00 0.00 37 1024.6
20260830171556 61 25 0.9 3.5 0.00 0.00 0.00 44 1024.8
20260830170025 61 5 0.9 3.5 0.00 0.00 0.00 44 1024.8
20260830164512 61 225 0.9 7.8 0.00 0.00 0.00 44 1024.8
20260830163054 60 236 0.9 3.5 0.00 0.00 0.00 46 1024.8
20260830161525 59 294 0.9 2.6 0.00 0.00 0.00 48 1025.0
20260830160020 58 268 0.9 4.3 0.00 0.00 0.00 48 1025.1
20260830154552 57 254 0.0 2.6 0.00 0.00 0.00 49 1025.1
20260830153030 56 319 0.0 1.7 0.00 0.00 0.00 52 1025.1
20260830151510 55 298 0.0 3.5 0.00 0.00 0.00 54 1025.1
20260830150052 53 292 0.0 3.5 0.00 0.00 0.00 55 1025.2
20260830144534 51 284 0.0 2.6 0.00 0.00 0.00 59 1025.2
20260830143017 47 219 0.0 0.0 0.00 0.00 0.00 67 1025.1
20260830141600 46 219 0.0 0.0 0.00 0.00 0.00 67 1025.0
20260830140049 45 219 0.0 0.0 0.00 0.00 0.00 68 1024.9
20260830134535 44 219 0.0 0.9 0.00 0.00 0.00 67 1024.6
20260830133014 44 220 0.0 0.9 0.00 0.00 0.00 68 1024.6
20260830131508 44 220 0.0 1.7 0.00 0.00 0.00 66 1024.4
20260830130104 44 229 0.0 0.9 0.00 0.00 0.00 64 1024.3